Date String (YYYY-MM-DD hh:mm:ss) UTC,Instrument flags,absolute air pressure of the measurement (hPa),sample flow rate (lpm),inlet stack bypass flow (lpm),air temperature of the measurement (°C),ambient temperature measured by the external sensor (°C),aerosol sample conditioner tube jacket temperature (°C),OPC LED temperature (°C),internal box temperature (°C),relative humidity of the measurement (%),span deviation,mass concentration of particles derived from Lorenz-Mie calculation of OPC scattering (μg/m³),mass concentration of particles derived from Lorenz-Mie calculation of OPC scattering (μg/m³),mass concentration of particles derived from Lorenz-Mie calculation of OPC scattering (μg/m³)
DateTimeUTC,F1_M11,P_M11,Q1_M11,Q2_M11,T1_M11,T2_M11,T3_M11,T4_M11,T5_M11,U1_M11,ZSPAN_M11,X0_M11,X2_M11,X1_M11
2024-01-04 15:00:00,SystemResetWarning,0824.5,5.00,000.00,019.3,018.5,000.0,027.7,020.4,14.7,0002.1,0012.81,0007.08,0006.49
2024-01-04 15:01:00,SystemResetWarning,0824.6,5.00,000.00,019.3,018.5,000.0,027.7,020.4,14.7,0001.9,0012.70,0007.04,0006.49
2024-01-04 15:02:00,SystemResetWarning,0824.7,5.01,000.00,019.3,018.5,000.0,027.7,020.4,14.8,0000.4,0012.83,0007.02,0006.47
2024-01-04 15:03:00,SystemResetWarning,0824.7,5.00,000.00,019.2,018.5,000.0,027.7,020.4,14.8,0000.0,0012.78,0007.03,0006.47
2024-01-04 15:04:00,SystemResetWarning,0824.7,5.00,000.00,019.2,018.5,000.0,027.7,020.4,14.9,0000.0,0012.85,0007.06,0006.46
2024-01-04 15:05:00,SystemResetWarning,0824.7,5.00,000.00,019.2,018.5,000.0,027.7,020.4,14.9,0000.5,0012.47,0007.07,0006.45
2024-01-04 15:06:00,SystemResetWarning,0824.7,5.00,000.00,019.2,018.5,000.0,027.7,020.3,14.9,0000.2,0012.04,0007.03,0006.42
2024-01-04 15:07:00,SystemResetWarning,0824.7,4.99,000.00,019.2,018.5,000.0,027.6,020.3,15.0,0002.5,0011.91,0007.03,0006.39
2024-01-04 15:08:00,SystemResetWarning,0824.7,5.00,000.00,019.2,018.4,000.0,027.6,020.3,15.0,0002.0,0011.76,0007.01,0006.37
2024-01-04 15:09:00,SystemResetWarning,0824.7,5.00,000.00,019.2,018.4,000.0,027.6,020.2,15.1,0002.3,0012.35,0007.01,0006.34
2024-01-04 15:10:00,SystemResetWarning,0824.8,5.00,000.00,019.2,018.4,000.0,027.6,020.2,15.1,0002.2,0012.49,0007.03,0006.34
2024-01-04 15:11:00,SystemResetWarning,0824.8,5.01,000.00,019.1,018.4,000.0,027.6,020.2,15.2,0001.9,0012.70,0007.01,0006.32
2024-01-04 15:12:00,SystemResetWarning,0824.7,5.02,000.00,019.1,018.3,000.0,027.6,020.1,15.2,0001.3,0012.61,0006.98,0006.30
2024-01-04 15:13:00,SystemResetWarning,0824.7,4.99,000.00,019.1,018.3,000.0,027.6,020.2,15.3,0001.3,0012.39,0006.97,0006.29
2024-01-04 15:14:00,SystemResetWarning,0824.7,4.99,000.00,019.1,018.3,000.0,027.5,020.1,15.3,0000.6,0012.51,0006.92,0006.27
2024-01-04 15:15:00,SystemResetWarning,0824.7,5.00,000.00,019.1,018.2,000.0,027.5,020.2,15.4,0000.7,0012.18,0006.87,0006.27
2024-01-04 15:16:00,SystemResetWarning,0824.7,5.01,000.00,019.1,018.2,000.0,027.5,020.2,15.4,0000.3,0012.25,0006.86,0006.26
2024-01-04 15:17:00,SystemResetWarning,0824.7,5.00,000.00,019.0,018.2,000.0,027.5,020.2,15.5,0000.0,0012.30,0006.91,0006.30
2024-01-04 15:18:00,SystemResetWarning,0824.7,5.00,000.00,019.0,018.2,000.0,027.5,020.2,15.5,0000.2,0012.28,0006.91,0006.32
2024-01-04 15:19:00,SystemResetWarning,0824.7,5.01,000.00,019.0,018.3,000.0,027.5,020.2,15.5,0000.1,0012.34,0006.91,0006.35
2024-01-04 15:20:00,SystemResetWarning,0824.7,5.00,000.00,019.0,018.3,000.0,027.5,020.3,15.6,-000.3,0011.96,0006.93,0006.38
2024-01-04 15:21:00,SystemResetWarning,0824.6,5.00,000.00,019.0,018.3,000.0,027.5,020.3,15.6,-000.3,0011.87,0006.94,0006.40
2024-01-04 15:22:00,SystemResetWarning,0824.7,4.99,000.00,019.0,018.3,000.0,027.5,020.3,15.6,-000.3,0011.67,0006.97,0006.43
2024-01-04 15:23:00,SystemResetWarning,0824.7,5.00,000.00,019.0,018.3,000.0,027.4,020.3,15.6,-000.0,0011.75,0007.00,0006.47
2024-01-04 15:24:00,SystemResetWarning,0824.7,4.99,000.00,019.0,018.3,000.0,027.4,020.3,15.6,0000.4,0011.97,0007.04,0006.50
2024-01-04 15:25:00,SystemResetWarning,0824.7,4.99,000.00,019.0,018.4,000.0,027.4,020.3,15.7,0000.5,0011.97,0007.09,0006.55
2024-01-04 15:26:00,SystemResetWarning,0824.7,5.00,000.00,019.0,018.4,000.0,027.4,020.3,15.7,0000.7,0012.21,0007.13,0006.57
2024-01-04 15:27:00,SystemResetWarning,0824.7,5.00,000.00,019.1,018.4,000.0,027.4,020.3,15.7,0000.8,0012.85,0007.15,0006.60
2024-01-04 15:28:00,SystemResetWarning,0824.7,5.00,000.00,019.1,018.4,000.0,027.4,020.3,15.7,0000.7,0012.86,0007.14,0006.61
2024-01-04 15:29:00,SystemResetWarning,0824.7,5.00,000.00,019.1,018.4,000.0,027.4,020.3,15.8,0000.5,0012.49,0007.15,0006.63
2024-01-04 15:30:00,SystemResetWarning,0824.7,5.00,000.00,019.1,018.4,000.0,027.4,020.3,15.8,0000.4,0012.11,0007.19,0006.66
2024-01-04 15:31:00,SystemResetWarning,0824.7,5.00,000.00,019.1,018.4,000.0,027.4,020.3,15.8,0000.8,0012.25,0007.25,0006.70
2024-01-04 15:32:00,SystemResetWarning,0824.8,5.00,000.00,019.0,018.4,000.0,027.4,020.3,15.9,0000.9,0012.28,0007.31,0006.76
2024-01-04 15:33:00,SystemResetWarning,0824.7,5.00,000.00,019.1,018.4,000.0,027.4,020.3,15.9,0000.8,0012.88,0007.36,0006.80
2024-01-04 15:34:00,SystemResetWarning,0824.7,5.00,000.00,019.0,018.4,000.0,027.4,020.3,16.0,0000.7,0013.70,0007.40,0006.83
2024-01-04 15:35:00,SystemResetWarning,0824.7,5.00,000.00,019.1,018.4,000.0,027.4,020.3,16.0,0000.3,0013.82,0007.45,0006.87
2024-01-04 15:36:00,SystemResetWarning,0824.7,5.00,000.00,019.0,018.4,000.0,027.4,020.3,16.0,0000.3,0013.89,0007.49,0006.88
2024-01-04 15:37:00,SystemResetWarning,0824.7,5.00,000.00,019.0,018.4,000.0,027.4,020.3,16.1,0000.3,0013.41,0007.51,0006.91
2024-01-04 15:38:00,SystemResetWarning,0824.7,5.00,000.00,019.0,018.4,000.0,027.4,020.3,16.1,0000.5,0012.68,0007.50,0006.93
2024-01-04 15:39:00,SystemResetWarning,0824.8,5.00,000.00,019.0,018.4,000.0,027.4,020.3,16.2,0000.6,0013.18,0007.55,0006.98
2024-01-04 15:40:00,SystemResetWarning,0824.7,5.00,000.00,019.0,018.4,000.0,027.4,020.3,16.2,0000.6,0013.18,0007.57,0007.00
2024-01-04 15:41:00,SystemResetWarning,0824.7,5.00,000.00,019.0,018.4,000.0,027.4,020.3,16.3,0000.6,0013.18,0007.56,0007.00
2024-01-04 15:42:00,SystemResetWarning,0824.7,5.00,000.00,019.0,018.4,000.0,027.4,020.3,16.3,0000.6,0012.96,0007.51,0006.98
2024-01-04 15:43:00,SystemResetWarning,0824.7,5.00,000.00,019.0,018.4,000.0,027.4,020.3,16.4,0000.6,0013.62,0007.51,0006.96
2024-01-04 15:44:00,SystemResetWarning,0824.7,5.00,000.00,019.0,018.4,000.0,027.4,020.3,16.4,0000.8,0013.72,0007.48,0006.96
2024-01-04 15:45:00,SystemResetWarning,0824.7,5.00,000.00,019.0,018.4,000.0,027.4,020.3,16.5,0001.1,0012.74,0007.49,0006.96
2024-01-04 15:46:00,SystemResetWarning,0824.7,5.00,000.00,019.0,018.4,000.0,027.4,020.2,16.5,0001.2,0012.65,0007.49,0006.97
2024-01-04 15:47:00,SystemResetWarning,0824.7,5.00,000.00,019.0,018.3,000.0,027.4,020.2,16.6,0001.1,0012.61,0007.51,0007.01
2024-01-04 15:48:00,SystemResetWarning,0824.7,5.00,000.00,019.0,018.3,000.0,027.4,020.1,16.6,0001.0,0012.71,0007.57,0007.05
2024-01-04 15:49:00,SystemResetWarning,0824.7,5.00,000.00,019.0,018.3,000.0,027.4,020.2,16.6,0000.5,0012.80,0007.64,0007.10
2024-01-04 15:50:00,SystemResetWarning,0824.7,5.00,000.00,019.0,018.3,000.0,027.4,020.2,16.7,0000.3,0012.29,0007.66,0007.11
2024-01-04 15:51:00,SystemResetWarning,0824.7,5.00,000.00,019.0,018.3,000.0,027.4,020.2,16.7,0000.6,0012.58,0007.72,0007.14
2024-01-04 15:52:00,SystemResetWarning,0824.7,5.00,000.00,019.0,018.3,000.0,027.4,020.2,16.7,0000.7,0013.19,0007.77,0007.18
2024-01-04 15:53:00,SystemResetWarning,0824.7,5.00,000.00,019.0,018.3,000.0,027.4,020.2,16.8,0000.7,0013.22,0007.83,0007.25
2024-01-04 15:54:00,SystemResetWarning,0824.7,5.00,000.00,019.0,018.3,000.0,027.4,020.2,16.8,0000.4,0012.70,0007.83,0007.29
2024-01-04 15:55:00,SystemResetWarning,0824.7,5.00,000.00,019.0,018.3,000.0,027.3,020.2,16.8,0000.3,0012.10,0007.88,0007.32
2024-01-04 15:56:00,SystemResetWarning,0824.7,5.00,000.00,019.0,018.3,000.0,027.3,020.2,16.9,0000.6,0011.96,0007.89,0007.35
2024-01-04 15:57:00,SystemResetWarning,0824.7,5.00,000.00,019.0,018.3,000.0,027.3,020.1,16.9,0000.3,0012.12,0007.91,0007.39
2024-01-04 15:58:00,SystemResetWarning,0824.7,5.00,000.00,019.0,018.3,000.0,027.3,020.1,16.9,0000.1,0012.55,0007.90,0007.39
2024-01-04 15:59:00,SystemResetWarning,0824.7,5.00,000.00,018.9,018.3,000.0,027.3,020.1,17.0,0000.3,0012.85,0007.90,0007.39
